QPF
0.00 0.00 0.00 0.00 0.00 0.00 0.00 0.00 0.00 0.00 0.00 0.01 0.01 0.02 0.02 0.01 0.01 0.01 0.01 0.02 0.02 0.01 0.01 0.01 0.01 0.01 0.02 0.02 0.03 0.03 0.03 0.04 0.05 0.05 0.05 0.09 0.10 0.13 0.15 0.15 0.14 0.13 0.09
0.00 0.00 0.00 0.00 0.00 0.00 0.00 0.00 0.00 0.00 0.00 0.01 0.01 0.02 0.02 0.01 0.01 0.01 0.01 0.00 0.01 0.01 0.01 0.02 0.02 0.02 0.02 0.02 0.02 0.02 0.03 0.03 0.06 0.07 0.05 0.07 0.07 0.09 0.11 0.13 0.13 0.13 0.10
0.00 0.00 0.00 0.00 0.00 0.00 0.00 0.00 0.00 0.00 0.00 0.00 0.00 0.01 0.01 0.01 0.01 0.01 0.01 0.01 0.00 0.01 0.01 0.02 0.03 0.02 0.02 0.02 0.01 0.01 0.02 0.03 0.05 0.06 0.04 0.04 0.06 0.08 0.08 0.09 0.11 0.12 0.11
0.00 0.00 0.00 0.00 0.00 0.00 0.00 0.00 0.00 0.00 0.00 0.00 0.00 0.00 0.01 0.01 0.01 0.00 0.01 0.01 0.01 0.01 0.01 0.01 0.02 0.02 0.02 0.01 0.01 0.01 0.01 0.02 0.04 0.04 0.03 0.03 0.04 0.05 0.05 0.06 0.08 0.10 0.10
0.00 0.00 0.00 0.00 0.00 0.00 0.00 0.00 0.00 0.00 0.00 0.00 0.00 0.00 0.00 0.01 0.02 0.01 0.01 0.01 0.01 0.01 0.01 0.01 0.01 0.01 0.02 0.02 0.01 0.01 0.01 0.03 0.02 0.03 0.03 0.03 0.03 0.02 0.03 0.04 0.06 0.08 0.10
0.00 0.00 0.00 0.00 0.00 0.00 0.00 0.00 0.00 0.00 0.00 0.00 0.00 0.00 0.00 0.00 0.01 0.01 0.01 0.01 0.01 0.01 0.01 0.01 0.01 0.01 0.01 0.01 0.02 0.03 0.03 0.02 0.02 0.02 0.03 0.03 0.03 0.02 0.03 0.04 0.04 0.05 0.08
0.00 0.00 0.00 0.00 0.00 0.00 0.00 0.00 0.00 0.00 0.00 0.00 0.00 0.00 0.00 0.00 0.01 0.00 0.00 0.00 0.00 0.00 0.00 0.01 0.01 0.01 0.01 0.01 0.01 0.02 0.02 0.02 0.02 0.02 0.02 0.01 0.02 0.02 0.02 0.03 0.04 0.04 0.05
0.00 0.00 0.00 0.00 0.00 0.00 0.00 0.00 0.00 0.00 0.00 0.00 0.00 0.00 0.00 0.00 0.00 0.00 0.00 0.00 0.00 0.00 0.00 0.00 0.00 0.01 0.01 0.00 0.00 0.01 0.01 0.01 0.02 0.05 0.06 0.02 0.01 0.01 0.01 0.02 0.03 0.04 0.04
0.00 0.00 0.00 0.00 0.00 0.00 0.00 0.00 0.00 0.00 0.00 0.00 0.00 0.00 0.00 0.00 0.00 0.00 0.00 0.00 0.00 0.00 0.00 0.00 0.00 0.01 0.01 0.01 0.01 0.01 0.01 0.01 0.02 0.05 0.07 0.03 0.01 0.01 0.01 0.01 0.01 0.02 0.03
0.00 0.00 0.00 0.00 0.00 0.00 0.00 0.00 0.00 0.00 0.00 0.00 0.00 0.00 0.00 0.00 0.00 0.00 0.00 0.00 0.00 0.00 0.00 0.00 0.00 0.01 0.01 0.01 0.01 0.01 0.01 0.01 0.02 0.03 0.05 0.04 0.02 0.01 0.01 0.02 0.02 0.02 0.02
0.00 0.00 0.00 0.00 0.00 0.00 0.00 0.00 0.00 0.00 0.00 0.00 0.00 0.00 0.00 0.00 0.00 0.00 0.00 0.00 0.00 0.00 0.00 0.00 0.00 0.01 0.01 0.01 0.00 0.01 0.01 0.01 0.01 0.02 0.04 0.05 0.03 0.01 0.02 0.02 0.02 0.02 0.02
0.00 0.00 0.00 0.00 0.00 0.00 0.00 0.00 0.00 0.00 0.00 0.00 0.00 0.00 0.00 0.00 0.00 0.00 0.00 0.00 0.00 0.00 0.00 0.00 0.00 0.00 0.00 0.00 0.00 0.01 0.01 0.01 0.01 0.01 0.01 0.02 0.02 0.02 0.01 0.02 0.02 0.02 0.02
0.00 0.00 0.00 0.00 0.00 0.00 0.00 0.00 0.00 0.00 0.00 0.00 0.00 0.00 0.00 0.00 0.00 0.00 0.00 0.00 0.00 0.00 0.00 0.00 0.01 0.01 0.01 0.01 0.00 0.00 0.01 0.01 0.01 0.01 0.01 0.01 0.01 0.01 0.01 0.02 0.02 0.02 0.02
0.00 0.00 0.00 0.00 0.00 0.00 0.00 0.00 0.00 0.00 0.00 0.00 0.00 0.00 0.00 0.00 0.00 0.00 0.00 0.00 0.00 0.00 0.00 0.00 0.00 0.00 0.01 0.01 0.01 0.00 0.00 0.01 0.02 0.02 0.01 0.02 0.02 0.02 0.02 0.02 0.02 0.02 0.02
0.00 0.00 0.00 0.00 0.00 0.00 0.00 0.00 0.00 0.00 0.00 0.00 0.00 0.00 0.00 0.00 0.00 0.00 0.00 0.00 0.00 0.00 0.00 0.00 0.00 0.00 0.00 0.01 0.00 0.00 0.00 0.00 0.01 0.02 0.02 0.01 0.02 0.02 0.03 0.03 0.03 0.02 0.02
0.00 0.00 0.00 0.00 0.00 0.00 0.00 0.00 0.00 0.00 0.00 0.00 0.00 0.00 0.00 0.00 0.00 0.00 0.00 0.00 0.00 0.00 0.00 0.00 0.00 0.00 0.00 0.00 0.00 0.00 0.01 0.01 0.01 0.01 0.01 0.01 0.01 0.02 0.02 0.02 0.03 0.02 0.02
0.00 0.00 0.00 0.00 0.00 0.00 0.00 0.00 0.00 0.00 0.00 0.00 0.00 0.00 0.00 0.00 0.00 0.00 0.00 0.00 0.00 0.00 0.00 0.00 0.00 0.00 0.00 0.00 0.00 0.00 0.00 0.00 0.00 0.01 0.01 0.01 0.01 0.01 0.01 0.01 0.01 0.02 0.02
0.00 0.00 0.00 0.00 0.00 0.00 0.00 0.00 0.00 0.00 0.00 0.00 0.00 0.00 0.00 0.00 0.00 0.00 0.00 0.00 0.00 0.00 0.00 0.00 0.00 0.00 0.00 0.00 0.00 0.00 0.00 0.00 0.00 0.00 0.00 0.01 0.01 0.01 0.01 0.01 0.01 0.01 0.02
0.00 0.00 0.00 0.00 0.01 0.00 0.00 0.00 0.00 0.00 0.00 0.00 0.00 0.00 0.00 0.00 0.00 0.00 0.00 0.00 0.00 0.00 0.00 0.00 0.00 0.00 0.00 0.00 0.00 0.00 0.00 0.00 0.00 0.00 0.00 0.00 0.00 0.01 0.01 0.01 0.01 0.01 0.01
0.00 0.00 0.01 0.01 0.01 0.01 0.01 0.01 0.01 0.00 0.00 0.00 0.00 0.00 0.00 0.00 0.00 0.00 0.00 0.00 0.00 0.00 0.00 0.00 0.00 0.00 0.00 0.00 0.00 0.00 0.00 0.00 0.00 0.00 0.00 0.00 0.00 0.00 0.00 0.01 0.01 0.01 0.01
0.00 0.00 0.01 0.01 0.01 0.01 0.01 0.01 0.01 0.01 0.01 0.00 0.00 0.00 0.00 0.00 0.00 0.00 0.00 0.00 0.00 0.00 0.00 0.00 0.00 0.00 0.00 0.00 0.00 0.00 0.00 0.00 0.00 0.00 0.00 0.00 0.00 0.00 0.00 0.00 0.00 0.01 0.01
0.00 0.00 0.01 0.01 0.02 0.02 0.02 0.01 0.01 0.01 0.01 0.01 0.01 0.01 0.00 0.00 0.00 0.00 0.00 0.00 0.00 0.00 0.00 0.00 0.00 0.00 0.00 0.00 0.00 0.00 0.00 0.00 0.00 0.00 0.00 0.00 0.00 0.00 0.00 0.00 0.00 0.01 0.01
0.01 0.01 0.01 0.01 0.02 0.02 0.02 0.02 0.01 0.01 0.01 0.01 0.01 0.01 0.01 0.01 0.01 0.01 0.01 0.01 0.00 0.00 0.00 0.00 0.00 0.00 0.00 0.00 0.00 0.00 0.00 0.00 0.00 0.00 0.00 0.00 0.00 0.00 0.00 0.00 0.00 0.00 0.01
0.01 0.01 0.01 0.01 0.02 0.02 0.02 0.02 0.02 0.02 0.01 0.01 0.01 0.01 0.01 0.01 0.01 0.00 0.00 0.00 0.00 0.00 0.00 0.00 0.00 0.00 0.00 0.00 0.00 0.00 0.00 0.00 0.00 0.00 0.00 0.00 0.00 0.00 0.00 0.00 0.00 0.00 0.00
0.01 0.01 0.01 0.01 0.01 0.02 0.02 0.02 0.02 0.02 0.02 0.02 0.02 0.02 0.01 0.01 0.01 0.00 0.00 0.00 0.00 0.00 0.00 0.00 0.00 0.00 0.00 0.00 0.00 0.00 0.00 0.00 0.00 0.00 0.00 0.00 0.00 0.00 0.00 0.00 0.00 0.00 0.00
0.01 0.01 0.01 0.01 0.01 0.02 0.02 0.02 0.02 0.02 0.02 0.02 0.02 0.02 0.02 0.01 0.01 0.01 0.00 0.00 0.00 0.00 0.00 0.00 0.00 0.00 0.00 0.00 0.00 0.00 0.00 0.00 0.00 0.00 0.00 0.00 0.00 0.00 0.00 0.00 0.00 0.00 0.00
MSLP
1011.78 1012.14 1012.51 1012.83 1013.09 1013.25 1013.33 1013.33 1013.29 1013.22 1013.15 1013.09 1013.03 1012.97 1012.89 1012.78 1012.63 1012.46 1012.28 1012.13 1012.01 1011.96 1011.98 1012.07 1012.21 1012.37 1012.54 1012.66 1012.74 1012.74 1012.68 1012.56 1012.40 1012.22 1012.03 1011.86 1011.70 1011.57 1011.47 1011.41 1011.39 1011.42 1011.50
1011.62 1011.97 1012.30 1012.60 1012.84 1013.00 1013.09 1013.12 1013.12 1013.09 1013.06 1013.03 1013.00 1012.96 1012.90 1012.81 1012.68 1012.53 1012.36 1012.21 1012.09 1012.02 1012.00 1012.05 1012.14 1012.25 1012.38 1012.48 1012.56 1012.59 1012.58 1012.52 1012.44 1012.33 1012.21 1012.09 1011.96 1011.84 1011.73 1011.63 1011.57 1011.54 1011.56
1011.45 1011.79 1012.11 1012.39 1012.62 1012.78 1012.88 1012.93 1012.96 1012.96 1012.96 1012.96 1012.96 1012.94 1012.90 1012.83 1012.72 1012.59 1012.44 1012.30 1012.17 1012.08 1012.03 1012.04 1012.08 1012.14 1012.23 1012.31 1012.39 1012.44 1012.47 1012.48 1012.47 1012.44 1012.38 1012.31 1012.22 1012.11 1012.00 1011.88 1011.77 1011.69 1011.64
1011.25 1011.60 1011.92 1012.20 1012.42 1012.59 1012.70 1012.77 1012.81 1012.84 1012.86 1012.89 1012.90 1012.90 1012.88 1012.83 1012.74 1012.63 1012.50 1012.36 1012.23 1012.13 1012.06 1012.02 1012.02 1012.05 1012.10 1012.16 1012.23 1012.30 1012.37 1012.42 1012.47 1012.50 1012.51 1012.49 1012.44 1012.35 1012.24 1012.10 1011.97 1011.84 1011.75
1010.98 1011.36 1011.70 1011.99 1012.23 1012.40 1012.53 1012.61 1012.67 1012.71 1012.75 1012.78 1012.81 1012.82 1012.81 1012.77 1012.70 1012.61 1012.50 1012.38 1012.26 1012.15 1012.06 1012.01 1011.97 1011.97 1011.98 1012.03 1012.09 1012.16 1012.25 1012.34 1012.43 1012.50 1012.56 1012.58 1012.56 1012.50 1012.41 1012.28 1012.13 1011.98 1011.84
1010.64 1011.04 1011.42 1011.73 1011.99 1012.19 1012.33 1012.43 1012.50 1012.55 1012.59 1012.62 1012.65 1012.67 1012.66 1012.64 1012.59 1012.52 1012.43 1012.33 1012.22 1012.13 1012.04 1011.97 1011.92 1011.90 1011.89 1011.91 1011.96 1012.02 1012.11 1012.21 1012.32 1012.42 1012.51 1012.56 1012.58 1012.55 1012.48 1012.37 1012.23 1012.07 1011.91
1010.19 1010.63 1011.04 1011.39 1011.67 1011.90 1012.06 1012.18 1012.26 1012.31 1012.36 1012.39 1012.41 1012.42 1012.42 1012.41 1012.37 1012.32 1012.26 1012.19 1012.12 1012.05 1011.98 1011.92 1011.87 1011.84 1011.82 1011.82 1011.84 1011.89 1011.96 1012.05 1012.15 1012.26 1012.35 1012.43 1012.47 1012.47 1012.43 1012.35 1012.24 1012.10 1011.94
1009.65 1010.11 1010.54 1010.92 1011.24 1011.49 1011.68 1011.82 1011.91 1011.98 1012.02 1012.05 1012.07 1012.08 1012.07 1012.06 1012.04 1012.02 1011.99 1011.95 1011.92 1011.89 1011.86 1011.83 1011.81 1011.78 1011.76 1011.75 1011.75 1011.77 1011.82 1011.88 1011.95 1012.04 1012.13 1012.21 1012.26 1012.29 1012.29 1012.25 1012.17 1012.06 1011.93
1009.01 1009.47 1009.92 1010.32 1010.67 1010.95 1011.18 1011.34 1011.46 1011.54 1011.59 1011.62 1011.64 1011.64 1011.63 1011.63 1011.62 1011.61 1011.61 1011.62 1011.64 1011.66 1011.68 1011.70 1011.72 1011.72 1011.72 1011.71 1011.70 1011.69 1011.70 1011.72 1011.76 1011.82 1011.88 1011.95 1012.01 1012.06 1012.09 1012.09 1012.06 1011.99 1011.88
1008.31 1008.76 1009.19 1009.61 1009.97 1010.29 1010.55 1010.75 1010.90 1011.01 1011.09 1011.13 1011.15 1011.15 1011.14 1011.13 1011.13 1011.14 1011.17 1011.21 1011.28 1011.36 1011.44 1011.52 1011.59 1011.65 1011.68 1011.68 1011.68 1011.66 1011.64 1011.62 1011.62 1011.64 1011.68 1011.73 1011.79 1011.85 1011.90 1011.93 1011.94 1011.91 1011.83
1007.60 1007.99 1008.40 1008.80 1009.18 1009.52 1009.82 1010.07 1010.28 1010.43 1010.54 1010.61 1010.64 1010.65 1010.64 1010.63 1010.62 1010.64 1010.68 1010.76 1010.86 1011.00 1011.14 1011.29 1011.43 1011.54 1011.62 1011.67 1011.69 1011.67 1011.64 1011.61 1011.58 1011.56 1011.57 1011.60 1011.65 1011.71 1011.78 1011.84 1011.87 1011.87 1011.83
1006.89 1007.21 1007.56 1007.94 1008.31 1008.68 1009.03 1009.34 1009.61 1009.83 1010.00 1010.11 1010.18 1010.20 1010.19 1010.17 1010.16 1010.17 1010.21 1010.30 1010.43 1010.60 1010.81 1011.02 1011.22 1011.41 1011.56 1011.66 1011.72 1011.73 1011.72 1011.68 1011.64 1011.61 1011.60 1011.61 1011.65 1011.71 1011.79 1011.86 1011.91 1011.93 1011.91
1006.22 1006.43 1006.71 1007.04 1007.41 1007.79 1008.19 1008.57 1008.92 1009.23 1009.48 1009.66 1009.77 1009.82 1009.83 1009.81 1009.78 1009.78 1009.81 1009.89 1010.03 1010.22 1010.46 1010.73 1011.00 1011.25 1011.48 1011.65 1011.77 1011.83 1011.86 1011.84 1011.82 1011.79 1011.78 1011.79 1011.82 1011.88 1011.95 1012.03 1012.09 1012.12 1012.10
1005.60 1005.68 1005.86 1006.12 1006.47 1006.87 1007.32 1007.77 1008.22 1008.63 1008.97 1009.24 1009.43 1009.53 1009.56 1009.55 1009.51 1009.49 1009.50 1009.56 1009.69 1009.89 1010.15 1010.45 1010.77 1011.09 1011.39 1011.63 1011.83 1011.96 1012.04 1012.08 1012.09 1012.09 1012.10 1012.12 1012.16 1012.22 1012.29 1012.36 1012.42 1012.45 1012.43
1005.00 1004.94 1005.00 1005.19 1005.49 1005.90 1006.39 1006.92 1007.47 1007.99 1008.45 1008.82 1009.10 1009.27 1009.35 1009.37 1009.34 1009.30 1009.30 1009.34 1009.46 1009.65 1009.91 1010.23 1010.59 1010.96 1011.31 1011.63 1011.90 1012.11 1012.26 1012.37 1012.44 1012.48 1012.52 1012.57 1012.62 1012.69 1012.76 1012.83 1012.88 1012.90 1012.88
1004.41 1004.20 1004.13 1004.22 1004.47 1004.87 1005.39 1005.98 1006.62 1007.25 1007.82 1008.32 1008.70 1008.97 1009.13 1009.20 1009.21 1009.19 1009.19 1009.22 1009.33 1009.51 1009.77 1010.10 1010.48 1010.88 1011.28 1011.66 1011.99 1012.27 1012.50 1012.68 1012.81 1012.92 1013.00 1013.08 1013.16 1013.24 1013.32 1013.38 1013.43 1013.45 1013.42
1003.81 1003.45 1003.24 1003.23 1003.41 1003.77 1004.29 1004.92 1005.62 1006.35 1007.04 1007.65 1008.16 1008.54 1008.81 1008.97 1009.05 1009.09 1009.12 1009.18 1009.29 1009.48 1009.74 1010.07 1010.46 1010.88 1011.31 1011.73 1012.12 1012.46 1012.75 1012.99 1013.19 1013.35 1013.49 1013.60 1013.71 1013.81 1013.89 1013.96 1014.00 1014.01 1013.98
1003.23 1002.72 1002.37 1002.24 1002.32 1002.62 1003.10 1003.74 1004.48 1005.26 1006.04 1006.77 1007.40 1007.91 1008.31 1008.59 1008.78 1008.92 1009.03 1009.15 1009.31 1009.53 1009.81 1010.15 1010.55 1010.98 1011.42 1011.86 1012.28 1012.66 1012.99 1013.29 1013.53 1013.74 1013.92 1014.08 1014.21 1014.32 1014.42 1014.49 1014.53 1014.53 1014.51
1002.70 1002.05 1001.57 1001.31 1001.28 1001.48 1001.89 1002.49 1003.21 1004.02 1004.85 1005.66 1006.40 1007.04 1007.58 1008.02 1008.36 1008.63 1008.87 1009.10 1009.34 1009.62 1009.95 1010.32 1010.73 1011.16 1011.61 1012.05 1012.48 1012.87 1013.23 1013.55 1013.83 1014.08 1014.29 1014.47 1014.62 1014.74 1014.84 1014.91 1014.95 1014.96 1014.93
1002.28 1001.52 1000.93 1000.54 1000.37 1000.45 1000.76 1001.26 1001.92 1002.70 1003.54 1004.39 1005.21 1005.97 1006.65 1007.25 1007.76 1008.21 1008.61 1008.98 1009.35 1009.72 1010.11 1010.52 1010.96 1011.40 1011.85 1012.28 1012.70 1013.09 1013.46 1013.78 1014.07 1014.33 1014.56 1014.75 1014.91 1015.04 1015.14 1015.20 1015.24 1015.24 1015.22
1002.05 1001.22 1000.53 1000.02 999.72 999.66 999.82 1000.19 1000.74 1001.44 1002.23 1003.08 1003.95 1004.79 1005.60 1006.35 1007.03 1007.66 1008.24 1008.78 1009.29 1009.78 1010.26 1010.74 1011.20 1011.66 1012.10 1012.52 1012.92 1013.30 1013.65 1013.97 1014.25 1014.51 1014.74 1014.93 1015.08 1015.21 1015.30 1015.35 1015.38 1015.38 1015.36
1002.05 1001.19 1000.44 999.83 999.42 999.21 999.22 999.43 999.83 1000.40 1001.10 1001.90 1002.77 1003.66 1004.55 1005.42 1006.26 1007.06 1007.82 1008.52 1009.18 1009.80 1010.37 1010.91 1011.42 1011.89 1012.33 1012.74 1013.12 1013.47 1013.80 1014.10 1014.37 1014.61 1014.82 1015.01 1015.15 1015.27 1015.34 1015.39 1015.41 1015.40 1015.38
1002.31 1001.47 1000.70 1000.05 999.54 999.20 999.05 999.10 999.33 999.75 1000.32 1001.03 1001.84 1002.73 1003.67 1004.62 1005.58 1006.51 1007.40 1008.25 1009.04 1009.77 1010.43 1011.03 1011.57 1012.06 1012.50 1012.89 1013.25 1013.58 1013.88 1014.16 1014.42 1014.64 1014.84 1015.01 1015.15 1015.24 1015.31 1015.34 1015.35 1015.33 1015.31
1002.76 1002.00 1001.27 1000.61 1000.05 999.62 999.35 999.24 999.32 999.57 1000.00 1000.59 1001.32 1002.16 1003.09 1004.07 1005.08 1006.10 1007.08 1008.03 1008.91 1009.71 1010.44 1011.09 1011.65 1012.15 1012.59 1012.97 1013.31 1013.62 1013.90 1014.16 1014.40 1014.62 1014.81 1014.97 1015.09 1015.18 1015.23 1015.25 1015.25 1015.23 1015.20
1003.32 1002.68 1002.04 1001.43 1000.87 1000.40 1000.04 999.83 999.77 999.88 1000.17 1000.63 1001.25 1002.01 1002.89 1003.85 1004.86 1005.90 1006.92 1007.91 1008.83 1009.67 1010.42 1011.09 1011.66 1012.16 1012.58 1012.95 1013.28 1013.58 1013.85 1014.11 1014.34 1014.55 1014.74 1014.89 1015.01 1015.09 1015.13 1015.15 1015.14 1015.12 1015.10
1003.86 1003.37 1002.86 1002.34 1001.84 1001.39 1001.01 1000.73 1000.59 1000.60 1000.77 1001.11 1001.62 1002.29 1003.08 1003.98 1004.94 1005.94 1006.94 1007.91 1008.82 1009.65 1010.39 1011.04 1011.61 1012.09 1012.50 1012.86 1013.18 1013.47 1013.74 1014.00 1014.23 1014.45 1014.64 1014.79 1014.91 1014.99 1015.04 1015.06 1015.05 1015.03 1015.01
Thickness
5718 5715 5711 5707 5704 5700 5696 5693 5690 5687 5684 5681 5678 5674 5671 5667 5664 5661 5658 5656 5654 5653 5653 5653 5653 5655 5656 5658 5660 5662 5665 5667 5667 5672 5678 5685 5689 5693 5697 5701 5705 5708 5711
5718 5714 5710 5706 5703 5699 5695 5693 5690 5687 5684 5681 5677 5673 5670 5667 5664 5661 5658 5656 5653 5651 5651 5651 5652 5654 5654 5656 5658 5660 5663 5665 5667 5668 5673 5678 5683 5688 5692 5695 5699 5703 5705
5717 5713 5708 5705 5701 5697 5695 5692 5689 5686 5683 5680 5676 5673 5670 5667 5664 5661 5658 5655 5653 5651 5650 5650 5650 5652 5652 5654 5656 5658 5661 5664 5665 5666 5669 5673 5678 5683 5685 5689 5693 5696 5699
5716 5712 5707 5704 5700 5697 5694 5691 5688 5685 5682 5678 5675 5672 5669 5667 5664 5661 5658 5655 5653 5652 5651 5650 5650 5651 5652 5653 5655 5656 5658 5660 5662 5663 5664 5668 5672 5676 5679 5681 5683 5688 5691
5715 5710 5707 5704 5700 5697 5693 5690 5687 5684 5681 5678 5674 5671 5669 5666 5664 5661 5658 5655 5653 5651 5651 5650 5651 5652 5654 5654 5655 5655 5656 5657 5658 5659 5660 5662 5665 5669 5672 5675 5676 5680 5683
5714 5710 5707 5703 5699 5695 5692 5689 5685 5682 5679 5676 5672 5670 5667 5666 5665 5663 5659 5655 5653 5651 5650 5650 5651 5652 5653 5655 5656 5657 5657 5656 5655 5655 5656 5658 5660 5664 5667 5669 5671 5672 5674
5713 5709 5705 5701 5697 5694 5691 5687 5683 5680 5677 5674 5671 5668 5665 5664 5664 5663 5660 5656 5653 5651 5650 5649 5650 5651 5651 5651 5653 5654 5655 5656 5656 5655 5655 5656 5658 5661 5663 5664 5665 5666 5669
5711 5707 5704 5700 5696 5692 5689 5685 5682 5678 5675 5671 5668 5666 5664 5663 5663 5662 5659 5656 5653 5651 5650 5649 5648 5648 5650 5650 5650 5650 5651 5651 5653 5653 5654 5655 5657 5659 5660 5661 5662 5663 5664
5709 5706 5702 5699 5694 5690 5687 5684 5680 5677 5673 5669 5666 5664 5662 5661 5662 5661 5658 5654 5651 5650 5649 5648 5648 5647 5648 5649 5647 5646 5646 5647 5649 5651 5652 5653 5655 5656 5657 5657 5656 5656 5656
5708 5705 5702 5698 5693 5689 5686 5683 5679 5675 5672 5668 5664 5662 5660 5658 5659 5659 5657 5653 5649 5647 5647 5646 5647 5646 5647 5646 5644 5643 5642 5642 5644 5645 5646 5648 5649 5650 5651 5651 5651 5650 5650
5707 5704 5700 5696 5692 5689 5685 5681 5677 5673 5669 5665 5661 5659 5657 5656 5656 5656 5655 5651 5648 5645 5644 5642 5643 5644 5644 5643 5642 5641 5640 5640 5640 5639 5639 5640 5642 5643 5644 5645 5646 5645 5644
5703 5699 5696 5693 5691 5687 5682 5678 5674 5670 5665 5661 5658 5655 5654 5653 5653 5653 5652 5650 5647 5644 5641 5640 5639 5640 5640 5639 5638 5638 5637 5637 5635 5634 5633 5633 5634 5634 5636 5637 5638 5639 5639
5697 5694 5691 5689 5685 5683 5678 5674 5670 5666 5662 5658 5655 5652 5650 5649 5648 5649 5649 5647 5645 5641 5639 5638 5637 5636 5635 5634 5634 5633 5632 5630 5629 5628 5626 5626 5626 5627 5629 5630 5631 5631 5631
5691 5688 5686 5683 5679 5677 5674 5671 5667 5663 5659 5656 5653 5649 5647 5645 5644 5644 5642 5641 5640 5637 5634 5633 5632 5630 5629 5628 5627 5626 5625 5624 5623 5621 5620 5620 5621 5621 5621 5621 5621 5622 5621
5685 5683 5680 5678 5674 5671 5668 5666 5664 5662 5660 5656 5652 5649 5645 5642 5642 5642 5639 5637 5635 5632 5629 5627 5624 5623 5621 5619 5619 5618 5617 5616 5615 5614 5613 5613 5613 5613 5612 5613 5612 5612 5610
5677 5675 5674 5671 5668 5665 5662 5658 5658 5657 5656 5655 5652 5648 5645 5644 5641 5638 5636 5634 5631 5629 5624 5620 5617 5615 5613 5612 5611 5610 5609 5608 5608 5607 5606 5606 5605 5605 5604 5604 5603 5602 5600
5673 5671 5668 5666 5664 5660 5657 5654 5649 5647 5648 5647 5646 5644 5642 5639 5636 5633 5631 5628 5625 5623 5617 5613 5611 5609 5607 5606 5604 5603 5602 5601 5601 5600 5599 5598 5597 5596 5595 5594 5593 5592 5591
5666 5666 5664 5661 5659 5657 5654 5651 5648 5644 5639 5637 5637 5637 5635 5633 5630 5627 5624 5621 5615 5613 5610 5607 5605 5603 5601 5599 5598 5596 5595 5594 5593 5592 5590 5589 5588 5587 5586 5584 5583 5582 5581
5658 5657 5656 5655 5653 5651 5649 5646 5642 5639 5636 5632 5629 5627 5627 5625 5623 5620 5617 5613 5609 5606 5603 5601 5599 5597 5595 5593 5591 5589 5587 5585 5583 5582 5581 5580 5579 5578 5576 5575 5574 5573 5572
5650 5651 5649 5647 5645 5644 5642 5639 5636 5633 5630 5627 5625 5623 5619 5616 5613 5610 5608 5606 5603 5600 5598 5595 5593 5590 5588 5585 5583 5580 5578 5576 5574 5572 5570 5569 5568 5567 5566 5565 5564 5563 5561
5640 5641 5642 5640 5638 5637 5636 5634 5632 5629 5626 5622 5620 5619 5616 5612 5609 5605 5602 5599 5597 5594 5591 5588 5585 5582 5579 5577 5574 5571 5569 5566 5564 5562 5560 5559 5558 5556 5555 5554 5553 5552 5551
5631 5632 5632 5631 5631 5630 5629 5628 5626 5624 5621 5617 5613 5610 5608 5605 5602 5599 5596 5593 5590 5587 5585 5581 5577 5574 5571 5568 5565 5562 5559 5556 5554 5552 5550 5548 5547 5545 5544 5543 5541 5540 5539
5621 5622 5622 5622 5622 5622 5620 5619 5618 5616 5614 5611 5607 5603 5599 5596 5594 5592 5589 5585 5582 5579 5576 5573 5569 5565 5562 5559 5556 5554 5550 5547 5544 5542 5540 5538 5536 5534 5532 5531 5529 5528 5527
5611 5612 5612 5612 5612 5611 5611 5610 5609 5608 5606 5603 5600 5596 5593 5589 5586 5583 5580 5576 5573 5570 5567 5563 5560 5556 5552 5549 5546 5543 5541 5538 5535 5533 5530 5527 5525 5523 5521 5519 5517 5516 5514
5600 5601 5601 5601 5601 5600 5600 5599 5598 5598 5596 5594 5591 5588 5584 5581 5578 5575 5571 5567 5563 5560 5556 5553 5550 5546 5543 5539 5536 5533 5530 5527 5525 5522 5520 5517 5514 5512 5509 5508 5506 5504 5503
5588 5589 5590 5590 5590 5589 5589 5588 5587 5586 5585 5583 5581 5578 5575 5572 5568 5565 5561 5558 5553 5550 5546 5543 5539 5536 5532 5529 5526 5522 5520 5517 5514 5511 5509 5506 5503 5500 5498 5496 5494 5492 5491